Stations météo

Publicité
Montelimar, France (7577): Température de l'air & dewpoint: 21.05.2019 06:00:00 - 27.05.2019 06:00:00 (CEST)Montelimar, France (7577): Température de l'air 5cm: 21.05.2019 06:00:00 - 27.05.2019 06:00:00 (CEST)Montelimar, France (7577): Température de l'air -20cm & Température de l'air -100cm: 21.05.2019 06:00:00 - 27.05.2019 06:00:00 (CEST)Montelimar, France (7577): Vitesse du vent & gusts: 21.05.2019 06:00:00 - 27.05.2019 06:00:00 (CEST)Montelimar, France (7577): Direction du vent: 21.05.2019 06:00:00 - 27.05.2019 06:00:00 (CEST)Montelimar, France (7577): reduced air pressure: 21.05.2019 06:00:00 - 27.05.2019 06:00:00 (CEST)Montelimar, France (7577): visibility: 21.05.2019 06:00:00 - 27.05.2019 06:00:00 (CEST)Montelimar, France (7577): Ensoleillement: 21.05.2019 06:00:00 - 27.05.2019 06:00:00 (CEST)Montelimar, France (7577): Quantités de précipitations: 21.05.2019 06:00:00 - 27.05.2019 06:00:00 (CEST)
Date & Time tt [°C] td [°C] tt 5cm [°C] tt -20cm [°C] tt -100cm [°C] ff [km/h] ff [knt] fx [km/h] fx [knt] dd ppp [hPa] vv [km] sd [min] rr [mm]
27.05.2019 06:00:00 - - - - - - - - - - - - - -
27.05.2019 05:00:00 17,2 10,6 16,4 19,9 16,2 25 13 41 22 N 1011,1 20 0 0,0
27.05.2019 04:00:00 17,3 10,2 16,4 20,0 16,2 21 12 39 21 NNE 1011,5 20 0 0,0
27.05.2019 03:00:00 17,3 9,9 16,3 20,1 16,2 19 10 37 20 NNE 1012,0 20 0 0,0
27.05.2019 02:00:00 17,9 9,3 16,7 20,1 16,2 19 10 32 18 NNE 1012,1 20 0 0,0
27.05.2019 01:00:00 18,0 8,8 16,7 20,2 16,2 14 8 24 13 NNE 1012,7 20 0 0,0
27.05.2019 00:00:00 19,1 9,0 17,3 20,2 16,2 11 6 27 15 NNE 1012,8 20 0 0,0
26.05.2019 23:00:00 20,6 8,2 19,2 20,2 16,2 15 8 44 24 N 1012,5 20 0 0,0
26.05.2019 22:00:00 20,9 7,8 19,2 20,2 16,2 16 9 46 25 NNE 1012,3 20 0 0,0
26.05.2019 21:00:00 21,7 7,1 20,7 20,1 16,2 20 11 39 21 NNE 1011,9 20 34 0,0
26.05.2019 20:00:00 22,6 7,9 24,0 19,9 16,2 19 10 49 26 NNE 1012,2 20 60 0,0
26.05.2019 19:00:00 23,6 7,6 26,6 19,7 16,2 27 14 49 27 NNE 1012,1 19 60 0,0
26.05.2019 18:00:00 23,9 7,1 27,9 19,5 16,1 29 16 48 26 NNE 1012,5 20 60 0,0
26.05.2019 17:00:00 24,1 8,1 29,5 19,2 16,2 29 16 50 27 NNE 1013,1 20 60 0,0
26.05.2019 16:00:00 24,0 8,0 29,3 19,0 16,2 30 16 55 30 NNE 1013,5 20 60 0,0
26.05.2019 15:00:00 23,7 8,9 29,1 18,9 16,1 24 13 53 29 NNE 1013,6 20 60 0,0
26.05.2019 14:00:00 22,8 8,5 28,1 18,8 16,1 27 15 58 31 NNE 1014,3 20 60 0,0
26.05.2019 13:00:00 22,2 9,7 27,3 18,7 16,1 31 17 59 32 NNE 1014,9 20 60 0,0
26.05.2019 12:00:00 21,1 9,7 26,2 18,7 16,1 31 17 55 30 NNE 1015,1 20 60 0,0
26.05.2019 11:00:00 20,1 9,6 24,2 18,8 16,1 31 17 53 28 NNE 1015,4 20 60 0,0
26.05.2019 10:00:00 19,6 9,2 19,8 18,9 16,1 23 12 48 26 NNE 1015,6 20 60 0,0
26.05.2019 09:00:00 16,9 9,8 16,9 19,0 16,1 24 13 49 27 NNE 1015,7 20 41 0,0
26.05.2019 08:00:00 17,0 9,4 16,8 19,1 16,0 25 14 52 28 NNE 1015,9 20 60 0,0
26.05.2019 07:00:00 16,4 8,6 14,6 19,2 16,0 19 10 38 20 N 1015,6 20 24 0,0
26.05.2019 06:00:00 16,1 8,8 15,0 19,3 16,0 13 7 27 14 NNE 1015,3 20 0 0,0
26.05.2019 05:00:00 17,2 9,1 15,8 19,5 16,0 11 6 38 20 N 1015,0 20 0 0,0
26.05.2019 04:00:00 17,7 9,1 15,3 19,6 16,0 15 8 32 18 NNE 1015,0 20 0 0,0
26.05.2019 03:00:00 16,7 9,6 14,8 19,7 16,0 14 8 27 14 NNE 1015,5 20 0 0,0
26.05.2019 02:00:00 16,5 10,6 14,9 19,7 16,0 10 6 22 12 NE 1015,7 20 0 0,0
26.05.2019 01:00:00 16,6 10,4 15,1 19,8 15,9 10 5 22 12 NNE 1016,0 20 0 0,0
26.05.2019 00:00:00 17,4 10,5 16,2 19,8 15,9 11 6 23 12 NNE 1016,0 20 0 0,0
25.05.2019 23:00:00 17,9 10,8 16,8 19,8 15,9 13 7 21 11 NE 1015,9 20 0 0,0
25.05.2019 22:00:00 19,1 10,6 17,8 19,8 15,9 12 6 26 14 NNE 1015,4 20 0 0,0
25.05.2019 21:00:00 20,9 10,7 20,1 19,7 15,9 16 9 36 20 NNE 1014,9 20 0 0,0
25.05.2019 20:00:00 22,2 10,0 22,0 19,6 15,9 20 11 45 24 NNE 1014,3 20 30 0,0
25.05.2019 19:00:00 23,4 9,8 24,6 19,4 15,9 15 8 35 19 N 1013,7 20 12 0,0
25.05.2019 18:00:00 24,4 11,0 25,4 19,2 15,9 14 8 41 22 N 1013,4 20 8 0,0
25.05.2019 17:00:00 25,4 8,8 27,4 19,0 15,8 19 10 40 22 NNW 1013,0 20 56 0,0
25.05.2019 16:00:00 24,6 9,7 26,9 19,0 15,8 26 14 47 26 NNE 1013,1 20 43 0,0
25.05.2019 15:00:00 25,4 10,0 31,5 18,9 15,8 23 13 41 22 NNE 1013,4 20 60 0,0
25.05.2019 14:00:00 24,4 10,7 24,0 18,9 15,8 28 15 45 24 NNE 1013,9 20 13 0,0
25.05.2019 13:00:00 22,1 11,5 24,3 18,9 15,7 20 11 37 20 NNE 1014,5 20 0 0,0
25.05.2019 12:00:00 21,5 11,5 23,6 18,9 15,7 21 12 38 20 NNE 1014,6 20 4 0,0
25.05.2019 11:00:00 20,6 11,2 21,1 19,0 15,7 21 11 46 25 NNE 1014,7 20 36 0,0
25.05.2019 10:00:00 19,0 10,8 19,7 19,1 15,7 23 12 39 21 NNE 1015,0 20 16 0,0
25.05.2019 09:00:00 18,1 10,2 18,1 19,1 15,7 21 11 34 19 NNE 1014,8 20 0 0,0
25.05.2019 08:00:00 17,9 10,0 17,1 19,3 15,7 11 6 33 18 NNE 1014,5 20 0 0,0
25.05.2019 07:00:00 17,6 9,7 17,0 19,4 15,7 15 8 26 14 NNE 1014,0 20 0 0,0
25.05.2019 06:00:00 18,1 9,7 17,3 19,5 15,6 13 7 25 14 NNE 1013,6 20 0 0,0
25.05.2019 05:00:00 18,0 10,4 13,5 19,6 15,7 14 8 25 13 NNE 1013,1 20 0 0,0
25.05.2019 04:00:00 15,3 13,0 12,4 19,6 15,6 0 0 5 3 N 1013,2 17 0 0,0
25.05.2019 03:00:00 15,9 13,0 12,7 19,7 15,6 0 0 5 3 N 1013,2 20 0 0,0
25.05.2019 02:00:00 16,6 13,7 15,5 19,8 15,6 3 1 4 2 NE 1013,5 20 0 0,0
25.05.2019 01:00:00 17,1 13,6 15,6 19,8 15,6 0 0 4 2 N 1014,0 20 0 0,0
25.05.2019 00:00:00 18,2 13,5 17,0 19,8 15,6 2 1 9 5 W 1014,2 20 0 0,0
24.05.2019 23:00:00 18,8 13,6 17,8 19,7 15,6 5 3 19 11 S 1013,8 20 0 0,0
24.05.2019 22:00:00 19,8 13,7 19,1 19,6 15,5 10 5 27 15 S 1013,2 20 0 0,0
24.05.2019 21:00:00 22,3 11,4 21,2 19,5 15,5 6 3 9 5 S 1012,3 20 30 0,0
24.05.2019 20:00:00 23,9 9,8 24,2 19,3 15,5 4 2 16 9 NW 1011,6 20 0 0,0
24.05.2019 19:00:00 24,3 9,5 25,5 19,0 15,5 8 4 23 12 NNW 1011,4 20 5 0,0
24.05.2019 18:00:00 25,3 9,2 28,9 18,8 15,5 13 7 31 17 NNW 1011,4 20 44 0,0
24.05.2019 17:00:00 25,9 10,5 28,0 18,5 15,5 12 6 34 18 NNW 1011,4 20 33 0,0
24.05.2019 16:00:00 25,6 9,4 30,3 18,3 15,5 18 10 32 17 NNE 1011,8 20 52 0,0
24.05.2019 15:00:00 25,2 9,1 30,7 18,1 15,5 18 10 31 17 N 1012,2 20 47 0,0
24.05.2019 14:00:00 25,1 8,6 30,2 18,0 15,4 17 9 31 17 N 1012,8 20 51 0,0
24.05.2019 13:00:00 24,0 8,4 27,5 17,9 15,4 16 9 29 16 N 1013,3 18 23 0,0
24.05.2019 12:00:00 22,7 9,1 25,4 17,9 15,4 19 10 31 17 NNE 1013,8 20 27 0,0
24.05.2019 11:00:00 21,7 9,9 26,8 18,0 15,4 21 11 37 20 NNE 1014,0 20 60 0,0
24.05.2019 10:00:00 19,3 9,5 23,6 18,1 15,4 16 9 26 14 NNE 1014,3 20 60 0,0
24.05.2019 09:00:00 16,3 9,2 18,3 18,2 15,4 11 6 21 11 N 1014,7 20 58 0,0
24.05.2019 08:00:00 13,7 9,3 12,3 18,4 15,4 10 5 17 9 N 1014,9 20 22 0,0
24.05.2019 07:00:00 12,4 8,5 8,7 18,5 15,3 8 4 17 9 N 1014,8 20 9 0,0
24.05.2019 06:00:00 10,6 8,4 7,6 18,7 15,3 4 2 8 4 NE 1014,6 20 0 0,0
24.05.2019 05:00:00 11,0 8,4 8,1 18,8 15,3 0 0 8 5 N 1014,7 20 0 0,0
24.05.2019 04:00:00 11,5 8,5 8,9 18,9 15,3 0 0 8 4 N 1014,8 20 0 0,0
24.05.2019 03:00:00 12,0 9,0 9,2 19,1 15,3 3 2 5 3 N 1015,1 20 0 0,0
24.05.2019 02:00:00 12,4 9,0 9,2 19,1 15,3 0 0 4 2 N 1015,5 20 0 0,0
24.05.2019 01:00:00 13,4 9,3 10,0 19,2 15,3 2 1 5 3 NE 1015,6 20 0 0,0
24.05.2019 00:00:00 15,2 8,7 11,0 19,2 15,3 5 3 12 6 WNW 1015,4 17 0 0,0
23.05.2019 23:00:00 15,9 9,3 11,6 19,1 15,2 3 1 9 5 N 1015,2 20 0 0,0
23.05.2019 22:00:00 17,6 9,0 13,1 19,0 15,2 4 2 8 4 NNE 1014,7 20 0 0,0
23.05.2019 21:00:00 21,1 7,3 15,9 18,8 15,2 6 3 12 7 N 1014,1 19 12 0,0
23.05.2019 20:00:00 23,5 8,0 24,8 18,6 15,2 8 4 17 9 N 1013,7 20 58 0,0
23.05.2019 19:00:00 25,0 8,0 29,1 18,3 15,2 10 5 17 9 NNE 1013,4 20 60 0,0
23.05.2019 18:00:00 25,5 8,0 31,9 17,9 15,2 11 6 18 10 NNE 1013,7 20 60 0,0
23.05.2019 17:00:00 25,8 7,4 33,7 17,6 15,2 10 5 17 9 N 1014,0 20 60 0,0
23.05.2019 16:00:00 25,5 7,1 34,4 17,3 15,2 11 6 24 13 N 1014,4 20 60 0,0
23.05.2019 15:00:00 24,7 6,0 31,6 17,0 15,1 9 5 22 12 N 1015,2 20 60 0,0
23.05.2019 14:00:00 23,6 5,9 30,8 16,9 15,2 16 9 26 14 NNE 1015,9 20 60 0,0
23.05.2019 13:00:00 22,8 7,3 29,3 16,8 15,2 17 9 31 17 NNE 1016,4 20 60 0,0
23.05.2019 12:00:00 21,5 6,6 27,1 16,8 15,2 19 10 35 19 NNE 1016,9 20 60 0,0
23.05.2019 11:00:00 19,9 7,6 25,1 16,9 15,2 20 11 30 16 NNE 1017,3 20 60 0,0
23.05.2019 10:00:00 18,4 7,8 22,1 17,0 15,1 17 9 26 14 NNE 1017,6 20 60 0,0
23.05.2019 09:00:00 16,7 7,1 17,9 17,1 15,1 14 8 28 15 NE 1017,5 20 60 0,0
23.05.2019 08:00:00 15,1 6,4 14,1 17,2 15,1 15 8 30 16 NNE 1017,2 20 60 0,0
23.05.2019 07:00:00 14,0 6,1 11,4 17,3 15,1 13 7 33 18 NNE 1017,0 20 31 0,0
23.05.2019 06:00:00 12,4 6,2 10,0 17,4 15,1 10 6 19 10 NE 1017,1 20 0 0,0
23.05.2019 05:00:00 14,2 6,8 10,0 17,5 15,1 13 7 27 15 NNE 1016,8 20 0 0,0
23.05.2019 04:00:00 14,2 7,3 11,4 17,6 15,1 6 3 22 12 N 1017,1 20 0 0,0
23.05.2019 03:00:00 15,5 7,0 13,7 17,7 15,1 11 6 24 13 N 1017,0 20 0 0,0
23.05.2019 02:00:00 16,0 7,5 14,1 17,7 15,1 10 5 26 14 N 1017,0 20 0 0,0
23.05.2019 01:00:00 17,1 7,2 15,3 17,8 15,1 15 8 26 14 N 1017,0 20 0 0,0
23.05.2019 00:00:00 17,5 7,8 15,8 17,8 15,1 14 7 38 20 N 1017,2 20 0 0,0
22.05.2019 23:00:00 18,5 7,6 17,0 17,8 15,0 18 10 35 19 N 1017,0 20 0 0,0
22.05.2019 22:00:00 20,1 6,8 18,3 17,7 15,1 20 11 43 23 N 1016,6 20 0 0,0
22.05.2019 21:00:00 20,8 6,7 18,8 17,6 15,1 13 7 32 17 N 1016,2 20 31 0,0
22.05.2019 20:00:00 22,2 6,8 23,4 17,4 15,0 19 10 42 23 N 1015,8 20 60 0,0
22.05.2019 19:00:00 22,9 7,0 26,0 17,2 15,0 23 12 49 26 N 1015,4 20 60 0,0
22.05.2019 18:00:00 23,3 7,0 28,1 17,0 15,0 26 14 49 26 NNE 1015,2 20 60 0,0
22.05.2019 17:00:00 23,5 6,3 28,7 16,8 15,0 28 15 52 28 NNE 1015,5 20 60 0,0
22.05.2019 16:00:00 23,3 7,4 28,3 16,5 15,0 33 18 56 30 NNE 1015,5 20 60 0,0
22.05.2019 15:00:00 23,0 7,1 28,5 16,4 15,0 32 17 58 32 NNE 1015,7 20 60 0,0
22.05.2019 14:00:00 22,7 8,4 28,0 16,2 15,0 27 14 59 32 N 1015,9 20 60 0,0
22.05.2019 13:00:00 21,6 8,1 27,2 16,3 15,0 28 15 53 29 N 1016,0 20 60 0,0
22.05.2019 12:00:00 20,6 10,1 25,1 16,2 15,0 27 15 52 28 NNE 1016,4 20 60 0,0
22.05.2019 11:00:00 19,0 10,0 23,5 16,3 15,0 29 16 53 29 NNE 1016,2 20 60 0,0
22.05.2019 10:00:00 17,6 9,2 20,4 16,3 15,0 26 14 47 25 NNE 1016,4 20 60 0,0
22.05.2019 09:00:00 16,3 8,8 16,8 16,4 15,0 27 15 48 26 NNE 1016,6 20 60 0,0
22.05.2019 08:00:00 14,7 8,4 13,2 16,5 15,0 26 14 50 27 NNE 1016,2 20 60 0,0
22.05.2019 07:00:00 14,2 8,2 12,1 16,6 14,9 19 10 37 20 NNE 1016,2 20 15 0,0
22.05.2019 06:00:00 14,3 8,3 12,6 16,7 14,9 24 13 43 23 N 1015,4 20 0 0,0
22.05.2019 05:00:00 14,6 8,8 12,9 16,8 14,9 23 13 40 22 N 1015,2 20 0 0,0
22.05.2019 04:00:00 14,7 9,1 13,1 16,9 14,9 22 12 32 17 NNE 1015,4 20 0 0,0
22.05.2019 03:00:00 15,2 9,3 13,5 17,0 15,0 21 11 34 19 NNE 1015,4 20 0 0,0
22.05.2019 02:00:00 15,7 9,4 13,7 17,0 14,9 18 10 31 17 NNE 1015,3 20 0 0,0
22.05.2019 01:00:00 16,0 9,4 13,7 17,0 14,9 16 9 36 19 N 1015,6 20 0 0,0
22.05.2019 00:00:00 16,5 9,4 14,5 17,1 14,9 16 9 30 16 NNE 1015,4 20 0 0,0
21.05.2019 23:00:00 17,4 9,3 15,2 17,1 14,9 16 8 35 19 NNE 1015,1 20 0 0,0
21.05.2019 22:00:00 18,9 8,8 16,9 17,0 14,9 19 10 47 26 N 1014,4 20 0 0,0
21.05.2019 21:00:00 19,6 9,2 18,0 17,0 14,9 18 10 42 23 N 1013,7 20 44 0,0
21.05.2019 20:00:00 20,2 9,4 19,5 16,8 14,9 19 10 54 29 N 1013,0 20 60 0,0
21.05.2019 19:00:00 21,0 9,3 22,5 16,7 14,9 25 13 48 26 N 1012,8 20 60 0,0
21.05.2019 18:00:00 21,6 8,8 25,0 16,5 14,9 24 13 46 25 NNE 1012,8 20 54 0,0
21.05.2019 17:00:00 21,7 10,2 22,5 16,4 14,9 22 12 52 28 NNE 1012,8 20 41 0,0
21.05.2019 16:00:00 21,4 10,2 21,5 16,2 14,9 23 12 44 24 NNE 1013,0 20 27 0,0
21.05.2019 15:00:00 20,9 11,8 20,8 16,1 14,9 19 10 40 21 N 1013,3 20 20 0,0
21.05.2019 14:00:00 20,7 11,3 22,8 16,0 14,9 19 10 41 22 NNE 1013,3 20 51 0,0
21.05.2019 13:00:00 18,7 10,8 19,8 15,9 14,9 22 12 48 26 NNE 1013,7 20 12 0,0
21.05.2019 12:00:00 18,9 10,7 22,1 15,8 14,8 23 12 41 22 N 1013,7 20 29 0,0
21.05.2019 11:00:00 19,3 12,1 21,2 15,8 14,9 21 11 37 20 NNE 1013,5 20 49 0,0
21.05.2019 10:00:00 17,6 11,6 22,3 15,9 14,8 21 12 35 19 NNE 1013,6 18 60 0,0
21.05.2019 09:00:00 16,5 11,4 17,2 15,9 14,9 21 11 41 22 NNE 1013,2 17 60 0,0
21.05.2019 08:00:00 15,1 11,3 14,1 16,0 14,9 21 11 36 20 N 1013,1 15 39 0,0
21.05.2019 07:00:00 14,4 11,0 13,2 16,0 14,8 17 9 28 15 N 1013,1 16 0 0,0
21.05.2019 06:00:00 14,4 11,0 13,5 16,1 14,8 14 8 30 16 NNE 1013,0 16 0 0,0

tt = Température de l'air
td = dewpoint
tt 5cm = Température de l'air 5cm
tt -20cm = Température de l'air -20cm
tt -100cm = Température de l'air -100cm
ff = Vitesse du vent
fx = gusts
dd = Direction du vent
ppp = reduced air pressure
vv = visibility
sd = Ensoleillement
rr = Quantités de précipitations

stations d'obs. à proximité